Weather History for St. James, MN

Change the Weather History Date:

Saturday, January 11, 2014

  Actual Average Record
Temperature  
Mean Temperature 26 °F -  
Max Temperature 32 °F 20 °F 49 °F (1990)
Min Temperature 19 °F 0 °F -25 °F (1977)
Degree Days  
Heating Degree Days 40    
Moisture  
Dew Point 22 °F    
Average Humidity 87    
Maximum Humidity 93    
Minimum Humidity 80    
Precipitation  
Precipitation 0.00 in - - ()
Sea Level Pressure  
Sea Level Pressure 29.63 in    
Wind  
Wind Speed 11 mph (WSW)    
Max Wind Speed 22 mph    
Max Gust Speed 32 mph    
Visibility 9 miles    
Events      
Averages and records for this station are not official NWS values.
T = Trace of Precipitation, MM = Missing Value Source: NWS Daily Summary

Daily Weather History Graph

Daily Weather History Graph

Search for Another Location

Airport:

Trip Planner

Search our weather history database for the weather conditions in past years. The results will help you decide how hot, cold, wet, or windy it might be!

Date:

Astronomy

Jan. 11, 2014 Rise Set
Actual Time 7:51 AM CST 5:01 PM CST
Civil Twilight 7:19 AM CST 5:33 PM CST
Nautical Twilight 6:43 AM CST 6:09 PM CST
Astronomical Twilight 6:08 AM CST 6:44 PM CST
Moon 1:47 PM CST (1/11) 3:55 AM CST (1/11)
Length of Visible Light 10h 14m
Length of Day
9h 09m
Waxing Gibbous, 83% of the Moon is Illuminated
Jan 11
Waxing Gibbous
Jan 15
Full
Jan 23
Last Quarter
Jan 30
New
Feb 6
First Quarter

Hourly Weather History & Observations

Time (CST) Temp. Windchill Dew Point Humidity Pressure Visibility Wind Dir Wind Speed Gust Speed Precip Events Conditions
12:15 AM 24.8 °F 17.9 °F 21.2 °F 86% 29.51 in 4.0 mi SW 5.8 mph - N/A   Clear
12:35 AM 21.2 °F 13.6 °F 19.4 °F 93% 29.51 in 4.0 mi WSW 5.8 mph - N/A   Clear
12:55 AM 21.2 °F 11.7 °F 19.4 °F 93% 29.51 in 5.0 mi WSW 8.1 mph - N/A   Clear
1:15 AM 21.2 °F 10.9 °F 19.4 °F 93% 29.51 in 7.0 mi West 9.2 mph - N/A   Clear
1:35 AM 21.2 °F 10.9 °F 17.6 °F 86% 29.51 in 10.0 mi West 9.2 mph - N/A   Clear
1:55 AM 19.4 °F 9.5 °F 17.6 °F 93% 29.51 in 10.0 mi West 8.1 mph - N/A   Clear
2:15 AM 21.2 °F 10.9 °F 17.6 °F 86% 29.51 in 10.0 mi West 9.2 mph - N/A   Clear
2:35 AM 19.4 °F 8.6 °F 15.8 °F 86% 29.52 in 10.0 mi West 9.2 mph - N/A   Clear
2:55 AM 21.2 °F 10.1 °F 17.6 °F 86% 29.52 in 10.0 mi West 10.4 mph - N/A   Clear
3:15 AM 19.4 °F 8.6 °F 15.8 °F 86% 29.52 in 10.0 mi West 9.2 mph - N/A   Clear
3:35 AM 19.4 °F 8.6 °F 15.8 °F 86% 29.52 in 10.0 mi West 9.2 mph - N/A   Clear
3:55 AM 19.4 °F 10.4 °F 15.8 °F 86% 29.53 in 10.0 mi WSW 6.9 mph - N/A   Clear
4:15 AM 19.4 °F 9.5 °F 15.8 °F 86% 29.53 in 10.0 mi West 8.1 mph - N/A   Clear
4:35 AM 21.2 °F 8.9 °F 17.6 °F 86% 29.53 in 10.0 mi West 12.7 mph - N/A   Clear
4:55 AM 19.4 °F 7.9 °F 15.8 °F 86% 29.53 in 10.0 mi West 10.4 mph - N/A   Clear
5:14 AM 19.4 °F 7.2 °F 15.8 °F 86% 29.54 in 10.0 mi West 11.5 mph - N/A   Clear
5:35 AM 21.2 °F 8.3 °F 15.8 °F 80% 29.54 in 10.0 mi West 13.8 mph - N/A   Clear
5:55 AM 23.0 °F 10.1 °F 17.6 °F 80% 29.55 in 10.0 mi West 15.0 mph - N/A   Clear
6:14 AM 23.0 °F 10.6 °F 17.6 °F 80% 29.56 in 10.0 mi West 13.8 mph - N/A   Clear
6:35 AM 23.0 °F 11.1 °F 17.6 °F 80% 29.57 in 10.0 mi West 12.7 mph - N/A   Clear
6:55 AM 23.0 °F 9.2 °F 17.6 °F 80% 29.57 in 10.0 mi WNW 17.3 mph - N/A   Mostly Cloudy
7:15 AM 24.8 °F 12.9 °F 19.4 °F 80% 29.59 in 10.0 mi WNW 13.8 mph 18.4 mph N/A   Overcast
7:34 AM 24.8 °F 11.5 °F 21.2 °F 86% 29.60 in 10.0 mi WNW 17.3 mph - N/A   Overcast
7:55 AM 24.8 °F 11.5 °F 21.2 °F 86% 29.60 in 5.0 mi WNW 17.3 mph 23.0 mph N/A   Overcast
8:15 AM 24.8 °F 12.4 °F 23.0 °F 93% 29.61 in 5.0 mi West 15.0 mph - N/A   Overcast
8:35 AM 26.6 °F 13.4 °F 23.0 °F 86% 29.62 in 7.0 mi WNW 18.4 mph - N/A   Overcast
8:54 AM 26.6 °F 14.3 °F 24.8 °F 93% 29.63 in 5.0 mi WNW 16.1 mph 24.2 mph N/A   Overcast
9:15 AM 26.6 °F 14.7 °F 24.8 °F 93% 29.63 in 7.0 mi WNW 15.0 mph 20.7 mph N/A   Overcast
9:35 AM 26.6 °F 14.3 °F 24.8 °F 93% 29.63 in 10.0 mi WNW 16.1 mph 21.9 mph N/A   Overcast
9:54 AM 26.6 °F 14.3 °F 24.8 °F 93% 29.65 in 10.0 mi WNW 16.1 mph 20.7 mph N/A   Overcast
10:15 AM 26.6 °F 13.4 °F 24.8 °F 93% 29.66 in 10.0 mi West 18.4 mph 23.0 mph N/A   Overcast
10:35 AM 28.4 °F 15.1 °F 24.8 °F 86% 29.66 in 10.0 mi WNW 20.7 mph 24.2 mph N/A   Overcast
10:54 AM 28.4 °F 15.4 °F 24.8 °F 86% 29.67 in 10.0 mi WNW 19.6 mph 28.8 mph N/A   Overcast
11:15 AM 28.4 °F 15.1 °F 24.8 °F 86% 29.68 in 10.0 mi WNW 20.7 mph 29.9 mph N/A   Overcast
11:35 AM 28.4 °F 15.4 °F 26.6 °F 93% 29.68 in 10.0 mi WNW 19.6 mph 26.5 mph N/A   Overcast
11:55 AM 28.4 °F 14.7 °F 24.8 °F 86% 29.67 in 10.0 mi WNW 21.9 mph 32.2 mph N/A   Overcast
12:14 PM 28.4 °F 15.1 °F 24.8 °F 86% 29.67 in 10.0 mi WNW 20.7 mph 29.9 mph N/A   Overcast
12:35 PM 28.4 °F 14.7 °F 24.8 °F 86% 29.68 in 10.0 mi WNW 21.9 mph 29.9 mph N/A   Overcast
12:55 PM 30.2 °F 17.4 °F 26.6 °F 86% 29.68 in 10.0 mi WNW 20.7 mph 26.5 mph N/A   Overcast
1:14 PM 30.2 °F 18.1 °F 26.6 °F 86% 29.68 in 10.0 mi WNW 18.4 mph 27.6 mph N/A   Overcast
1:35 PM 30.2 °F 18.1 °F 26.6 °F 86% 29.67 in 10.0 mi WNW 18.4 mph 24.2 mph N/A   Overcast
1:55 PM 30.2 °F 18.5 °F 26.6 °F 86% 29.68 in 10.0 mi West 17.3 mph 21.9 mph N/A   Overcast
2:15 PM 32.0 °F 21.2 °F 26.6 °F 80% 29.68 in 10.0 mi West 16.1 mph - N/A   Overcast
2:35 PM 32.0 °F 21.6 °F 28.4 °F 87% 29.67 in 10.0 mi WNW 15.0 mph - N/A   Mostly Cloudy
2:54 PM 32.0 °F 21.2 °F 28.4 °F 87% 29.67 in 10.0 mi WNW 16.1 mph - N/A   Scattered Clouds
3:15 PM 32.0 °F 21.2 °F 28.4 °F 87% 29.68 in 10.0 mi West 16.1 mph 19.6 mph N/A   Clear
3:35 PM 32.0 °F 23.6 °F 26.6 °F 80% 29.69 in 10.0 mi West 10.4 mph - N/A   Clear
3:55 PM 32.0 °F 23.6 °F 28.4 °F 87% 29.69 in 10.0 mi West 10.4 mph - N/A   Clear
4:15 PM 30.2 °F 23.4 °F 26.6 °F 86% 29.70 in 10.0 mi West 6.9 mph - N/A   Clear
4:35 PM 30.2 °F 25.4 °F 26.6 °F 86% 29.70 in 10.0 mi West 4.6 mph - N/A   Clear
4:55 PM 30.2 °F 21.9 °F 26.6 °F 86% 29.71 in 10.0 mi SW 9.2 mph - N/A   Clear
5:15 PM 28.4 °F 20.4 °F 26.6 °F 93% 29.72 in 10.0 mi SW 8.1 mph - N/A   Clear
5:35 PM 28.4 °F 19.7 °F 24.8 °F 86% 29.72 in 10.0 mi SW 9.2 mph - N/A   Clear
5:55 PM 26.6 °F 17.5 °F 24.8 °F 93% 29.72 in 10.0 mi SW 9.2 mph - N/A   Clear
6:15 PM 26.6 °F 16.2 °F 23.0 °F 86% 29.73 in 10.0 mi SSW 11.5 mph - N/A   Clear
6:35 PM 26.6 °F 17.5 °F 23.0 °F 86% 29.73 in 10.0 mi SSW 9.2 mph - N/A   Clear
6:55 PM 24.8 °F 16.1 °F 21.2 °F 86% 29.73 in 10.0 mi SW 8.1 mph - N/A   Clear
7:15 PM 24.8 °F 17.9 °F 21.2 °F 86% 29.72 in 10.0 mi South 5.8 mph - N/A   Clear
7:35 PM 24.8 °F 17.9 °F 21.2 °F 86% 29.71 in 10.0 mi SSW 5.8 mph - N/A   Clear
7:55 PM 23.0 °F 14.7 °F 19.4 °F 86% 29.70 in 10.0 mi South 6.9 mph - N/A   Clear
8:15 PM 23.0 °F 13.9 °F 19.4 °F 86% 29.70 in 10.0 mi South 8.1 mph - N/A   Clear
8:34 PM 21.2 °F 12.6 °F 19.4 °F 93% 29.70 in 10.0 mi South 6.9 mph - N/A   Clear
8:55 PM 21.2 °F 14.9 °F 19.4 °F 93% 29.70 in 10.0 mi South 4.6 mph - N/A   Clear
9:15 PM 21.2 °F 14.9 °F 19.4 °F 93% 29.69 in 10.0 mi South 4.6 mph - N/A   Clear
9:35 PM 21.2 °F 12.6 °F 19.4 °F 93% 29.68 in 10.0 mi South 6.9 mph - N/A   Clear
9:55 PM 23.0 °F 12.4 °F 19.4 °F 86% 29.68 in 10.0 mi South 10.4 mph - N/A   Clear
10:15 PM 23.0 °F 13.9 °F 19.4 °F 86% 29.67 in 10.0 mi South 8.1 mph - N/A   Clear
10:35 PM 23.0 °F 13.1 °F 19.4 °F 86% 29.66 in 10.0 mi South 9.2 mph - N/A   Clear
10:55 PM 24.8 °F 12.9 °F 21.2 °F 86% 29.66 in 10.0 mi South 13.8 mph - N/A   Clear
11:15 PM 26.6 °F 15.2 °F 21.2 °F 80% 29.64 in 10.0 mi South 13.8 mph - N/A   Clear
11:34 PM 26.6 °F 15.2 °F 21.2 °F 80% 29.63 in 10.0 mi South 13.8 mph - N/A   Clear
11:55 PM 28.4 °F 18.0 °F 23.0 °F 80% 29.61 in 10.0 mi South 12.7 mph - N/A   Clear